• Join FlightAware (Why Join?)
  • Login
  • US Flag 
01:28AM EST


 

Airport Tracker/Info


-or-


 

Live Flight TrackerFlight Track Log ✈ DAL1636 ✈ 08-Apr-2013 ✈ KDTW - KBWI

Flight Track Log - Related Links

Times and Time Zones

All times are in EDT time to prevent confusion due to time zone crossing. See the DAL1636 flight status page for this flight to view local times or setup timezone preferences in your user account.

Time Position Orientation Groundspeed Altitude Reporting Facility
EDT Latitude Longitude Course Direction KTS MPH feet Rate Location/Type
08:38PM 42.2036 -83.3556 185° South 149 171 1,500  Level Cleveland Center
08:39PM 42.1494 -83.3614 185° South 226 260 3,600 2,340 Climbing Cleveland Center
08:40PM 42.0808 -83.3528 175° South 288 331 6,400 2,700 Climbing Cleveland Center
08:41PM 42.0561 -83.2483 108° East 342 394 8,800 2,100 Climbing Cleveland Center
08:42PM 42.0633 -83.1144 86° East 350 403 10,400 1,980 Climbing Cleveland Center
08:43PM 42.0689 -82.9553 87° East 377 434 12,900 2,700 Climbing Cleveland Center
08:44PM 42.0761 -82.7931 87° East 408 470 15,900 2,580 Climbing Cleveland Center
08:45PM 42.0836 -82.6256 86° East 432 497 18,100 2,400 Climbing Cleveland Center
08:46PM 42.0822 -82.4519 91° East 450 518 20,700 1,920 Climbing Cleveland Center
08:47PM 42.0581 -82.2694 100° East 467 537 22,000 1,320 Climbing Cleveland Center
08:48PM 42.0250 -82.1036 105° East 482 555 23,400 1,560 Climbing Cleveland Center
08:49PM 41.9264 -81.9758 136° Southeast 475 547 25,200 1,860 Climbing Cleveland Center
08:50PM 41.8153 -81.8647 143° Southeast 492 566 27,200 2,100 Climbing Cleveland Center
08:51PM 41.7039 -81.7594 145° Southeast 498 573 29,400 1,740 Climbing Cleveland Center
08:52PM 41.5797 -81.6408 144° Southeast 493 567 30,800 1,680 Climbing Cleveland Center
08:53PM 41.4703 -81.5364 144° Southeast 488 562 32,800 1,080 Climbing Cleveland Center
08:54PM 41.3772 -81.4519 146° Southeast 483 556 33,000 60 Climbing Cleveland Center
08:55PM 41.2464 -81.3867 159° South 458 527 33,000  Level Cleveland Center
08:56PM 41.1383 -81.3386 161° South 458 527 33,000  Level Cleveland Center
08:57PM 41.0178 -81.2794 160° South 458 527 33,000  Level Cleveland Center
08:58PM 40.9014 -81.2231 160° South 458 527 33,000  Level Cleveland Center
08:59PM 40.7847 -81.1700 161° South 451 519 33,000  Level Cleveland Center
09:00PM 40.6664 -81.1142 160° South 451 519 33,000  Level Cleveland Center
09:01PM 40.5561 -81.0422 154° Southeast 446 513 33,000  Level Cleveland Center
09:02PM 40.4669 -80.9161 133° Southeast 441 507 33,000  Level Cleveland Center
09:03PM 40.3775 -80.7875 132° Southeast 458 527 33,000  Level Cleveland Center
09:04PM 40.2922 -80.6619 132° Southeast 464 534 33,000  Level Cleveland Center
09:05PM 40.2028 -80.5314 132° Southeast 470 541 33,000  Level Cleveland Center
09:06PM 40.1150 -80.4067 133° Southeast 470 541 33,000  Level Cleveland Center
09:07PM 40.0375 -80.2631 125° Southeast 475 547 33,000  Level Cleveland Center
09:09PM 39.9183 -79.8875 112° Southeast 488 562 33,000  Level Washington Center
09:10PM 39.8678 -79.7250 112° Southeast 488 562 33,000 -420 Level Washington Center
09:11PM 39.8150 -79.5625 113° Southeast 488 562 32,200 -1,740 Descending Washington Center
09:12PM 39.7619 -79.3978 113° Southeast 488 562 29,600 -2,820 Descending Washington Center
09:13PM 39.7108 -79.2358 112° Southeast 488 562 26,600 -2,580 Descending Washington Center
09:14PM 39.6614 -79.0742 112° Southeast 483 556 24,500 -2,100 Descending Washington Center
09:15PM 39.6142 -78.8969 109° East 478 550 22,500 -2,100 Descending Washington Center
09:16PM 39.5789 -78.7417 106° East 473 544 20,400 -1,740 Descending Washington Center
09:17PM 39.5472 -78.5950 106° East 449 517 19,100 -1,320 Descending Washington Center
09:18PM 39.5172 -78.4486 105° East 430 495 17,800 -1,380 Descending Washington Center
09:19PM 39.4853 -78.3019 106° East 425 489 16,400 -1,260 Descending Washington Center
09:20PM 39.4547 -78.1719 107° East 425 489 15,300 -780 Descending Washington Center
09:21PM 39.4267 -78.0258 104° East 425 489 14,900 -660 Descending Washington Center
09:22PM 39.4275 -77.8753 90° East 414 476 14,000 -900 Descending Washington Center
09:23PM 39.4322 -77.7303 88° East 408 470 13,100 -900 Descending Washington Center
09:24PM 39.4367 -77.5881 88° East 403 464 12,200 -900 Descending Washington Center
09:25PM 39.4431 -77.4539 86° East 385 443 11,300 -600 Descending Washington Center
09:26PM 39.4489 -77.3358 86° East 354 407 11,100 -120 Descending Washington Center
09:27PM 39.4631 -77.2206 81° East 331 381 11,100 -120 Level Washington Center
09:27PM 39.4667 -77.1667 85° East 332 382 11,000 -120 Descending Potomac TRACON
09:28PM 39.4833 -77.0500 79° East 333 383 11,000 -600 Level Potomac TRACON
09:29PM 39.4833 -76.9500 90° East 329 379 9,900 -1,440 Descending Potomac TRACON
09:30PM 39.4833 -76.8333 90° East 314 361 8,200 -1,620 Descending Potomac TRACON
09:31PM 39.4333 -76.7667 134° Southeast 281 323 6,700 -1,560 Descending Potomac TRACON
09:32PM 39.3667 -76.8000 201° Southwest 230 265 5,300 -1,200 Descending Potomac TRACON
09:33PM 39.3167 -76.8333 207° Southwest 196 226 4,200 -1,200 Descending Potomac TRACON
09:34PM 39.2667 -76.8667 207° Southwest 191 220 3,000 -1,200 Descending Potomac TRACON
09:35PM 39.2167 -76.8500 166° South 180 207 2,000 -540 Descending Potomac TRACON
09:36PM 39.2000 -76.8000 113° Southeast 183 211 2,000 -540 Level Potomac TRACON
09:37PM 39.1833 -76.7500 113° Southeast 161 185 1,000 -960 Descending Potomac TRACON
09:39PM 39.1667 -76.6667 142° Southeast  Level FlightAware Approximate
09:46PM 39.1754 -76.6683 142° Southeast  Level Estimated
09:47PM 39.1754 -76.6683 142° Southeast  Level Estimated
09:48PM 39.1754 -76.6683 142° Southeast  Level Estimated